Regional Weather Roundup
Issued by NWS

Home | Current Version | Previous Version | Graphics & Text | Print | Product List | Glossary On
Versions: 1 2 3 4 5 6 7 8 9 10 11 12 13 14 15 16 17 18 19 20 21 22 23 24 25 26 27 28 29 30 31 32 33 34 35 36 37 38 39 40 41 42 43 44 45 46 47 48 49 50
000
ASUS45 KTFX 011804
RWRMT
MONTANA HOURLY WEATHER ROUNDUP
NATIONAL WEATHER SERVICE GREAT FALLS MT
1104 AM MST SUN FEB 1 2015

NOTE: "FAIR" INDICATES FEW OR NO CLOUDS BELOW 12000 FEET WITH NO
SIGNIFICANT WEATHER AND/OR OBSTRUCTIONS TO VISIBILITY.

* THESE STATIONS ARE NOT UNDER NWS QUALITY CONTROL. THEY DO NOT
   REPORT WEATHER SUCH AS PRECIPITATION OR FOG.

MTZ001>007-043-011900-
WEST OF THE DIVIDE
CITY           SKY/WX    TMP DP  RH WIND       PRES   REMARKS
KALISPELL      CLOUDY    23  16  74 N14       30.16F WCI  10
MISSOULA       CLOUDY    28  19  69 SE10      30.18F WCI  19
BUTTE          CLOUDY    21  16  81 CALM      30.11F
MULLAN PASS    SNOW      21  18  88 S9        30.00F VSB 1/2  WCI  11
* ANACONDA     CLOUDY    25  16  69 SE11       N/A   WCI  14
* ESSEX        N/A       15   7  70 N/A        N/A
* LINCOLN      N/A       13   8  80 NE2        N/A
* LOOKOUT PASS N/A       23  22  96 S4G12      N/A
* POLSON       N/A       26  25  96 N/A        N/A
* RONAN APT    CLOUDY    23  21  92 N/A        N/A
* SEELEY LAKE  N/A       22  14  71 S3         N/A
* THOMP F APT  CLOUDY    21  15  78 NE4        N/A
$$

MTZ008-052>055-011900-
SOUTHWEST MONTANA
CITY           SKY/WX    TMP DP  RH WIND       PRES   REMARKS
BOZEMAN        PTSUNNY   19  14  81 CALM      30.19F
DILLON         CLOUDY    19  14  81 CALM      30.15F
* W YELLOWSTON PTSUNNY   19  13  77 N1         N/A
* THREE FORKS  PTCLDY    21  21 100 N/A        N/A
* BOULDER HILL N/A       15  11  84 SW17       N/A   WCI  -1
* MONIDA PASS  N/A       16  16 100 SE11       N/A   WCI   3
* RAYNOLDS PAS N/A       17   1  49 SE8G17     N/A   WCI   7
* WHITEHALL    N/A       22  13  68 W4         N/A
* WISE RIVER   N/A       14   8  77 NW4        N/A
$$

MTZ009>010-012-014-046-048-049-054-011900-
EAST SLOPES AND CENTRAL MONTANA
CITY           SKY/WX    TMP DP  RH WIND       PRES   REMARKS
CUT BANK       PTSUNNY    5   1  83 SE6       30.05F WCI  -6
GREAT FALLS    PTCLDY    16  10  77 S5        30.10F WCI   8
HELENA         PTSUNNY   19  12  74 CALM      30.19F
MALMSTROM AFB  PTCLDY    10   9  96 N2        30.13F
* DEARBORN     N/A       19  16  88 S12        N/A   WCI   6
* EAST GLACIER N/A       25  14  63 W21G28     N/A   WCI  10
* MONARCH      N/A       20  12  71 N4         N/A
* PENDROY      N/A       15  11  84 SW8        N/A   WCI   4
* ROGERS PASS  N/A       17  12  81 S7G15      N/A   WCI   7
* SWEET GRASS  N/A        4   2  91 S21G26     N/A   WCI -17
$$

MTZ011-013-016-021-035-040-045-047-050-051-011900-
NORTH CENTRAL MONTANA
CITY           SKY/WX    TMP DP  RH WIND       PRES   REMARKS
HAVRE          SUNNY      0  -6  75 E9        30.24F WCI -15
LEWISTOWN      SUNNY     16   9  74 E5        30.14F WCI   8
* N BAR RANCH  SUNNY     16   5  62 SW5       30.16F WCI   8
* CHESTER      N/A        5   0  80 NE2        N/A
* DENTON       N/A       17  10  74 SE15G20    N/A   WCI   2
* GEYSER       N/A       17  10  74 SW4        N/A
* JUDITH GAP   N/A        8   7  96 S14        N/A   WCI  -9
* LOMA         N/A        3   0  87 SE1        N/A
$$

MTZ017>020-022>027-061-062-011900-
NORTHEAST MONTANA
CITY           SKY/WX    TMP DP  RH WIND       PRES   REMARKS
GLASGOW        SUNNY      1  -4  79 SE8       30.38F WCI -13
GLENDIVE       SUNNY      1  -6  72 S9        30.41F WCI -14
JORDAN         SUNNY      9   3  76 SW9       30.34F WCI  -4
SIDNEY         SUNNY      0 -15  48 S8        30.47F WCI -14
WOLF POINT     SUNNY      1  -6  72 W3        30.44F
* BEAVER HILL  N/A        1  -4  79 S7         N/A   WCI -12
* CIRCLE       N/A        5   1  83 S8         N/A   WCI  -8
* LINDSAY DVD  N/A        4   1  87 S4         N/A
* NAVAJO       N/A        1  -3  83 SW9        N/A   WCI -14
* SACO         N/A       -5 -10  79 E6         N/A   WCI -18
$$

MTZ028>042-056>058-011900-
SOUTHCENTRAL AND SOUTHEAST MONTANA
CITY           SKY/WX    TMP DP  RH WIND       PRES   REMARKS
BAKER          SUNNY      3  -2  79 W10       30.38S WCI -12
BILLINGS       SUNNY     10   3  73 SW8       30.29F WCI  -2
LIVINGSTON     PTCLDY    16  10  77 E7        30.16F WCI   6
MILES CITY     SUNNY      7   1  76 SW7       30.40F WCI  -5
* LAUREL APT   SUNNY     10   1  67 N/A        N/A
* ROUNDUP APT  SUNNY     14   3  61 S11G18     N/A   WCI   1
* ALZADA       N/A        5   1  83 SW6        N/A   WCI  -6
* HYSHAM       N/A       16   6  64 S3G9       N/A
* LAME DEER    N/A        9   6  87 S5         N/A
* REED POINT   N/A       16   8  71 E6         N/A   WCI   7
$$

REGIONAL REPORTS...DAKOTAS
CITY           SKY/WX    TMP DP  RH WIND       PRES   REMARKS
WILLISTON      SUNNY      0  -8  68 SW8       30.44F WCI -14
DICKINSON      SUNNY     -2  -9  72 W6        30.37F WCI -14
CROSBY         SUNNY      1  -8  65 SW10      30.41F WCI -15
WATFORD CITY   SUNNY      0  -9  65 SW7       30.42F WCI -13
BISMARCK       SUNNY      0 -15  48 NW5       30.52F WCI -11
GRAND FORKS    SUNNY     -4 -17  53 N9        30.56F WCI -20
FARGO          SUNNY      0 -13  53 N16       30.51F WCI -20
BUFFALO SD     SUNNY      3  -2  79 W10       30.29S WCI -12
RAPID CITY     SUNNY      9   3  76 N20       30.35S WCI -10
$$

REGIONAL REPORTS...WYOMING/IDAHO/WASHINGTON
CITY           SKY/WX    TMP DP  RH WIND       PRES   REMARKS
GILLETTE       SUNNY     12   3  67 NW7       30.27F WCI   1
SHERIDAN       SUNNY     18   5  57 E3        30.28F
CODY           CLOUDY    21  14  74 S8        30.19F WCI  11
YELLOWSTONE LA PTSUNNY   16  10  77 VRB5      30.16S WCI   8
SALMON         CLOUDY    23  18  81 CALM      30.25S
MULLAN PASS    SNOW      21  18  88 S9        30.00S VSB 1/2  WCI  11
SAND POINT     LGT SNOW  32  32 100 NE6       30.15F VSB 2 1/2 WCI  26
SPOKANE        LGT SNOW  30  28  92 N6        30.12F VSB 1 1/2 WCI  24

$$



USA.gov is the U.S. government's official web portal to all federal, state and local government web resources and services.